CAPE
156 662 1044 1118 1084 677 321 495 721 770 336 130 167 118 138 200 138 252 64 194 214 478 784 611 257 146 109 11 244 446 637 364 657 410 414 207 23 775 462 309 312 236 586
1017 811 1022 844 1173 802 661 686 666 691 330 192 24 96 10 225 726 656 295 638 457 414 592 662 609 367 494 586 377 287 321 329 170 750 637 397 10 48 395 484 394 169 643
1729 1562 1090 610 894 954 803 815 730 541 551 556 211 0 7 111 556 855 646 409 814 819 810 611 715 718 521 796 841 647 425 395 289 80 268 498 219 50 22 85 491 612 42
1140 1404 898 718 785 1053 714 766 623 231 553 444 246 16 4 31 60 424 1019 675 861 1154 1168 612 521 892 707 726 1169 925 661 515 532 372 164 54 226 203 195 188 25 212 380
1045 1119 1247 824 957 1047 811 547 199 184 365 280 292 241 30 58 0 53 397 758 796 943 984 820 578 652 455 349 616 973 848 646 561 578 541 427 360 337 222 186 201 150 158
1199 1023 1190 870 888 1053 799 420 197 120 158 172 166 95 35 0 34 139 309 437 531 1010 1058 837 908 829 577 619 475 619 767 567 612 681 723 667 635 616 548 417 364 314 233
1164 1069 942 759 714 718 1003 557 341 242 463 539 264 100 119 13 0 0 97 141 281 554 848 844 798 789 607 644 606 507 636 572 628 568 669 727 635 592 620 538 463 435 407
1351 911 842 915 1228 1030 888 805 453 240 644 323 359 180 115 68 74 47 77 70 46 67 519 907 1065 901 735 669 760 729 804 840 662 576 508 491 518 544 494 499 461 417 382
1474 1166 991 602 917 951 919 937 678 406 104 80 96 15 31 34 111 130 168 199 127 157 298 753 1207 1160 922 813 1128 821 930 908 944 837 664 687 715 645 500 437 410 398 377
1332 1229 951 551 562 1074 677 666 604 475 522 119 55 184 8 106 36 83 303 184 176 108 63 10 468 1328 1247 1220 991 977 1086 1087 1031 1165 1161 871 869 853 801 716 643 560 465
1577 1318 1218 900 457 695 1155 865 634 599 403 374 374 227 157 22 36 22 65 523 369 233 139 7 0 563 646 823 1202 1163 1110 1019 1363 1464 1287 1232 1082 885 862 988 938 841 810
1603 1605 1435 1286 804 675 936 1160 871 667 472 334 207 278 468 146 117 256 52 273 444 463 417 324 178 565 496 169 226 551 510 24 147 1107 1285 1238 1103 960 691 660 615 553 662
1190 1309 1436 1364 1352 1211 963 1178 1068 915 839 425 345 249 215 491 425 442 335 142 171 230 538 616 678 632 491 240 13 5 380 426 614 905 870 813 734 633 498 390 351 355 408
1430 1451 1093 1254 1316 1200 1302 1037 1201 1304 1349 1117 817 721 619 551 569 571 459 302 135 242 327 279 161 441 365 268 196 71 50 605 413 349 324 352 385 379 333 255 141 63 76
1258 1253 1370 1160 1095 1057 974 1169 967 902 1316 1281 1231 1108 988 918 987 852 760 505 317 165 262 318 673 788 484 298 239 182 356 413 416 484 423 413 374 350 393 342 116 26 47
1231 1153 1085 1064 851 828 987 1049 1167 1107 923 1195 1395 1286 1143 990 872 830 654 523 445 509 426 559 437 570 780 547 283 590 563 767 538 426 443 401 412 526 290 57 38 82 174
1362 1210 1089 1013 787 818 831 834 886 990 864 904 1262 1245 1127 1060 977 884 662 625 558 590 490 517 420 435 561 586 589 615 551 536 513 509 430 421 522 465 335 105 136 76 17
1374 1287 1062 961 610 371 4 7 8 76 519 593 778 934 1031 1220 1030 1008 772 629 602 561 521 427 425 513 541 609 525 495 478 553 341 555 478 406 445 401 158 13 0 3 0
1253 1399 1103 805 293 1 0 3 19 0 0 453 630 859 841 915 1113 1005 877 667 607 555 538 618 689 731 618 451 374 421 417 399 416 489 414 393 291 177 42 0 0 0 0
931 1014 1006 948 647 212 2 1 0 0 0 0 542 844 906 833 912 975 995 843 688 651 689 750 749 607 523 516 515 310 472 473 361 485 357 299 172 47 1 0 0 0 0
854 861 918 921 569 212 1 0 0 0 1 18 162 338 369 723 1001 927 993 1013 892 797 850 872 760 709 644 545 402 345 287 242 148 343 329 265 165 52 41 0 0 0 0
841 762 832 859 528 163 145 17 26 0 15 17 6 0 30 0 167 554 745 1013 966 878 870 758 716 588 503 311 361 199 157 61 60 100 91 178 185 145 71 47 0 0 0
811 772 734 680 759 702 383 181 53 21 18 42 12 0 0 0 0 0 324 556 705 878 900 749 620 480 436 266 168 130 97 78 39 97 146 124 128 160 148 129 58 2 0
484 530 557 585 556 572 455 278 99 22 0 2 11 0 0 0 0 1 85 345 387 550 609 571 500 277 413 224 128 136 110 72 55 117 136 97 131 100 64 149 106 64 0
243 286 385 314 319 323 249 352 237 140 78 90 41 73 139 15 16 68 261 314 349 267 354 247 275 268 257 137 109 58 31 21 13 2 108 40 81 99 62 127 104 65 46
178 186 282 221 206 312 127 177 256 321 291 243 160 189 154 209 209 146 195 214 211 236 244 170 172 133 101 48 30 61 41 25 42 25 43 61 83 81 109 46 62 16 0
CIN
-210 -146 -83 -38 -26 -47 -90 -72 -51 -28 -39 -59 -49 -36 -35 -26 -33 -52 -98 -90 -94 -71 -71 -73 -106 -124 -146 -257 -109 -62 -30 -69 -14 -32 -20 -53 -88 -1 -5 -27 -27 -27 -1
-100 -153 -112 -76 -36 -50 -64 -54 -54 -31 -37 -35 -46 -38 -14 -23 -20 -49 -67 -78 -76 -85 -76 -76 -64 -86 -83 -75 -102 -108 -100 -92 -132 -22 -14 -28 -167 -143 -48 -29 -32 -54 -1
-5 -22 -57 -100 -63 -58 -57 -42 -40 -33 -30 -19 -30 -0 -31 -36 -31 -28 -55 -57 -58 -68 -81 -77 -73 -63 -75 -61 -63 -86 -106 -103 -116 -169 -100 -49 -94 -154 -170 -142 -44 -11 -99
-69 -46 -69 -56 -34 -36 -48 -32 -28 -68 -26 -34 -47 -96 -167 -56 -36 -28 -34 -42 -64 -42 -76 -75 -80 -66 -70 -72 -44 -63 -88 -100 -93 -99 -140 -173 -106 -103 -103 -110 -116 -86 -39
-93 -77 -59 -73 -41 -29 -30 -36 -107 -87 -31 -45 -46 -49 -122 -69 -0 -41 -19 -24 -19 -34 -58 -66 -81 -87 -86 -91 -91 -60 -63 -76 -87 -74 -71 -74 -82 -85 -106 -114 -109 -111 -103
-76 -103 -100 -96 -72 -29 -32 -51 -98 -116 -86 -71 -50 -80 -126 -0 -89 -51 -26 -16 -25 -30 -41 -69 -80 -84 -95 -81 -90 -82 -62 -62 -72 -69 -60 -64 -56 -55 -62 -75 -84 -84 -82
-87 -85 -106 -108 -98 -80 -41 -48 -63 -61 -21 -23 -52 -115 -92 -153 -0 -0 -48 -53 -27 -27 -42 -58 -75 -71 -74 -78 -79 -76 -70 -63 -59 -64 -58 -60 -64 -62 -54 -62 -76 -69 -65
-76 -108 -109 -84 -59 -63 -52 -50 -66 -84 -21 -32 -24 -30 -76 -89 -135 -102 -105 -104 -118 -84 -33 -33 -53 -57 -66 -56 -77 -70 -70 -58 -54 -61 -63 -59 -57 -65 -65 -55 -61 -65 -62
-50 -66 -81 -97 -71 -74 -64 -28 -47 -63 -107 -89 -70 -97 -63 -128 -79 -89 -101 -86 -72 -54 -35 -26 -48 -54 -60 -58 -49 -59 -48 -59 -55 -41 -52 -45 -45 -55 -68 -66 -64 -60 -57
-52 -58 -70 -80 -79 -44 -64 -61 -58 -68 -54 -99 -101 -63 -86 -50 -58 -71 -84 -118 -69 -73 -72 -21 -35 -44 -37 -34 -39 -38 -37 -41 -39 -37 -23 -32 -35 -37 -45 -45 -49 -54 -59
-32 -43 -59 -65 -74 -48 -31 -51 -60 -57 -65 -62 -48 -57 -66 -93 -77 -104 -104 -62 -76 -71 -68 -87 -0 -58 -59 -46 -55 -47 -41 -48 -60 -42 -29 -34 -29 -25 -26 -36 -39 -42 -50
-27 -41 -41 -43 -66 -51 -30 -23 -50 -65 -86 -77 -79 -54 -28 -76 -73 -45 -54 -39 -36 -32 -33 -66 -76 -73 -86 -129 -90 -70 -69 -42 -126 -50 -28 -27 -25 -21 -18 -24 -30 -44 -48
-30 -48 -37 -39 -35 -31 -40 -24 -24 -46 -73 -95 -94 -78 -61 -38 -44 -48 -35 -33 -29 -50 -44 -56 -54 -58 -65 -85 -153 -65 -98 -71 -55 -42 -38 -44 -41 -34 -42 -45 -54 -57 -50
-20 -27 -63 -43 -47 -46 -32 -39 -22 -11 -19 -33 -62 -71 -60 -48 -41 -45 -35 -29 -33 -41 -41 -57 -64 -64 -97 -99 -76 -129 -147 -46 -63 -77 -68 -64 -52 -53 -63 -62 -71 -95 -110
-30 -23 -12 -40 -49 -61 -47 -33 -39 -49 -10 -16 -28 -42 -40 -38 -33 -42 -32 -28 -21 -39 -61 -70 -27 -44 -79 -103 -69 -97 -71 -62 -57 -44 -44 -58 -74 -95 -77 -68 -94 -115 -99
-32 -35 -28 -9 -82 -29 -70 -40 -14 -13 -21 -9 -0 -9 -33 -47 -43 -48 -47 -41 -26 -15 -23 -49 -51 -42 -39 -54 -55 -47 -37 -36 -41 -41 -60 -70 -76 -81 -116 -149 -119 -79 -56
-28 -18 -25 -41 -13 -18 -13 -43 -29 -20 -15 -12 -1 -1 -18 -37 -38 -37 -45 -32 -40 -46 -10 -56 -73 -70 -51 -31 -13 -22 -40 -45 -45 -48 -65 -63 -71 -116 -138 -140 -81 -91 -73
-21 -19 -17 -20 -55 -72 -10 -5 -179 -116 -2 -5 -8 -6 -7 -13 -32 -44 -38 -30 -38 -43 -14 -23 -45 -46 -41 -30 -31 -28 -38 -32 -56 -29 -56 -62 -66 -128 -205 -243 -8 -157 -0
-13 -6 -14 -23 -77 -0 -0 -18 -127 -0 -0 -5 -9 -7 -14 -16 -10 -36 -43 -37 -47 -63 -42 -14 -35 -45 -40 -31 -24 -28 -26 -23 -45 -37 -65 -66 -73 -166 -257 -0 -0 -0 -0
-14 -9 -14 -16 -30 -87 -46 -16 -0 -97 -0 -0 -8 -3 -19 -18 -13 -22 -29 -43 -39 -35 -34 -7 -12 -41 -36 -45 -18 -41 -14 -28 -33 -45 -69 -89 -99 -174 -15 -0 -0 -0 -0
-27 -27 -22 -8 -68 -201 -263 -0 -0 -0 -86 -290 -132 -41 -103 -52 -5 -14 -21 -22 -35 -23 -12 -3 -6 -18 -19 -21 -35 -38 -25 -21 -43 -32 -22 -77 -112 -104 -146 -0 -0 -0 -0
-26 -39 -33 -9 -63 -231 -290 -445 -339 -5 -348 -312 -364 -54 -271 -0 -197 -20 -14 -17 -26 -24 -16 -14 -13 -14 -20 -28 -18 -31 -22 -26 -19 -51 -29 -55 -80 -81 -66 -106 -0 -0 -0
-24 -36 -39 -11 -7 -12 -91 -193 -286 -237 -290 -277 -270 -0 -0 -0 -0 -0 -55 -26 -31 -25 -22 -29 -19 -25 -20 -35 -34 -27 -43 -26 -32 -36 -29 -35 -54 -72 -55 -56 -73 -7 -0
-19 -24 -17 -9 -6 -13 -24 -65 -173 -274 -0 -89 -314 -0 -0 -0 -0 -37 -137 -30 -56 -48 -41 -39 -26 -46 -26 -38 -43 -42 -37 -39 -43 -43 -41 -25 -41 -48 -50 -47 -61 -63 -0
-33 -25 -18 -19 -16 -13 -29 -23 -67 -107 -112 -51 -32 -36 -67 -206 -195 -86 -6 -13 -26 -42 -56 -59 -48 -52 -42 -51 -44 -47 -60 -41 -55 -72 -39 -32 -48 -45 -46 -57 -33 -50 -65
-38 -31 -20 -22 -30 -27 -73 -58 -44 -22 -13 -10 -16 -9 -26 -15 -19 -50 -31 -34 -27 -38 -46 -61 -64 -63 -71 -77 -71 -40 -43 -35 -42 -36 -40 -22 -39 -37 -40 -66 -52 -97 -0
Wind_Speed
11 6 11 16 17 12 15 15 16 16 25 28 26 25 19 7 8 7 7 13 12 11 12 12 12 11 11 12 12 12 13 13 13 13 12 12 12 12 12 11 11 10 9
6 6 8 7 15 9 18 21 21 23 24 24 22 23 23 18 8 5 10 9 9 8 11 10 11 10 10 11 10 10 11 11 11 11 11 11 11 11 11 11 10 10 9
11 3 6 8 12 18 23 22 18 19 21 21 20 21 24 23 9 4 4 5 6 11 8 10 10 12 10 9 8 8 7 8 8 8 9 10 10 13 12 10 9 9 9
16 4 5 14 8 17 22 17 21 19 23 22 23 24 26 25 27 11 5 4 4 6 8 7 7 9 9 9 9 7 5 6 6 5 6 8 6 8 9 7 8 8 8
16 15 12 16 11 1 14 12 15 17 20 24 28 23 23 26 32 30 24 2 2 3 4 6 8 10 9 9 7 7 5 4 5 5 5 5 5 6 6 8 7 7 7
15 14 12 16 9 8 14 20 6 21 19 26 26 17 7 8 14 23 26 23 5 1 1 1 3 7 10 7 6 6 6 5 4 6 6 5 6 6 5 5 6 7 7
14 12 8 11 8 9 6 11 4 3 5 29 20 20 20 6 6 8 17 12 4 4 4 4 3 3 2 6 5 5 5 5 5 5 8 9 6 7 7 6 6 6 6
13 13 11 8 6 7 8 11 6 6 5 13 19 21 23 23 16 16 8 6 6 5 6 8 4 4 4 2 5 8 7 6 7 6 7 9 9 8 9 9 8 7 7
13 13 12 10 9 7 10 9 8 9 8 10 17 20 23 24 22 18 7 8 5 16 16 13 4 5 5 4 4 4 5 5 6 7 7 7 7 8 8 9 10 8 8
13 13 12 13 14 9 11 11 12 12 14 11 20 22 24 20 20 23 22 16 11 11 16 16 17 9 5 6 8 8 8 7 6 7 7 8 9 9 9 10 9 10 10
13 14 13 13 13 13 11 11 12 13 15 14 19 21 26 30 29 30 29 20 17 18 22 21 18 13 12 12 15 14 12 15 11 12 10 9 10 10 11 14 15 13 12
16 15 14 15 16 14 14 13 14 13 14 15 15 13 31 27 25 27 28 27 23 24 25 24 17 11 8 9 7 6 6 6 16 10 11 10 10 11 15 19 21 22 15
21 20 18 17 16 16 16 16 15 14 14 15 15 15 34 40 29 25 24 30 33 30 26 22 18 11 7 8 6 5 4 5 6 9 10 10 10 14 19 25 24 21 23
28 23 23 21 20 19 18 18 18 16 15 15 14 15 18 15 30 34 30 31 36 32 28 33 34 6 6 7 8 7 5 9 13 14 12 11 9 15 20 22 21 21 23
36 34 27 27 25 23 22 21 20 19 18 16 15 16 19 27 20 13 17 11 25 35 36 34 22 18 8 7 6 5 3 7 6 5 6 8 12 16 18 22 25 27 27
37 41 39 36 43 26 23 23 22 22 20 20 17 16 17 25 22 15 13 15 18 18 26 16 10 24 25 11 6 3 5 4 2 4 6 8 10 12 15 21 23 21 22
42 43 44 48 37 31 31 28 24 24 25 22 20 19 16 18 41 38 25 26 27 19 19 29 13 18 21 6 4 4 4 6 9 7 5 7 6 8 9 12 16 17 17
39 43 46 50 39 37 30 26 24 36 31 34 28 20 22 21 15 41 40 30 17 16 22 19 7 7 7 4 3 3 3 6 8 8 9 7 5 6 6 10 10 12 16
42 40 41 45 32 27 31 23 36 41 42 34 38 30 25 24 25 27 42 42 30 14 11 10 13 14 6 7 4 4 3 2 5 7 9 9 9 5 5 6 9 10 13
43 41 38 34 27 27 18 22 28 45 44 43 38 37 30 28 26 25 24 36 29 23 19 17 20 23 17 9 7 7 6 4 6 10 10 12 12 10 6 7 3 3 1
38 37 36 30 27 24 21 17 16 9 38 42 43 38 35 35 35 29 28 25 25 23 21 20 22 21 17 11 9 11 6 7 10 10 12 18 15 13 5 6 5 4 7
34 31 30 24 21 23 24 20 17 22 19 39 42 44 36 36 37 43 32 24 21 19 20 22 21 19 17 17 14 13 13 13 17 17 12 18 16 14 5 4 2 1 4
27 22 23 22 18 18 16 15 16 16 19 23 37 39 40 42 39 44 44 30 21 19 17 17 19 17 18 16 16 16 18 18 13 16 16 18 22 19 17 11 2 3 1
21 20 21 20 18 15 13 13 17 18 29 23 27 36 29 41 42 44 46 38 27 23 18 18 18 18 18 15 16 20 21 23 22 18 14 22 25 25 26 22 12 3 3
24 24 21 20 21 19 16 15 14 18 21 26 27 25 29 37 31 41 28 32 27 26 23 19 21 24 19 17 19 20 23 27 27 22 20 16 23 28 26 24 25 18 4
27 26 26 18 17 15 15 14 15 19 21 26 30 29 30 30 29 26 21 21 24 24 21 20 21 21 21 19 22 23 25 26 25 27 24 19 24 24 24 22 21 23 19
Wind_Direction
282 269 279 262 262 281 268 266 263 269 239 233 242 248 269 335 338 35 71 112 108 109 108 109 108 108 114 120 122 125 134 138 141 136 135 134 137 131 126 132 137 137 118
140 103 261 282 270 287 262 252 254 257 254 253 261 260 257 275 347 58 108 103 96 115 123 115 126 119 120 125 124 126 132 139 141 145 141 139 139 144 143 147 149 150 144
136 121 145 276 275 266 254 259 268 269 266 264 271 270 258 263 326 52 87 54 42 118 117 134 136 144 134 133 126 122 123 137 140 138 144 154 157 168 166 160 159 160 159
159 112 146 272 276 273 260 274 262 269 260 265 267 269 260 265 253 304 118 90 37 356 130 119 125 141 143 148 157 146 128 136 147 146 156 164 154 165 169 162 164 163 167
167 164 157 166 156 191 271 243 270 271 272 264 255 275 272 267 247 256 270 325 353 46 111 126 143 151 160 164 167 168 166 162 167 171 171 175 173 176 181 182 179 178 176
172 171 171 173 167 278 172 177 159 266 277 259 261 287 294 292 290 279 278 288 298 219 181 92 153 168 177 176 175 181 186 186 187 192 194 198 199 197 196 192 192 191 189
175 175 177 176 175 179 253 172 170 201 189 253 277 285 288 257 267 282 290 295 254 257 193 193 185 189 209 192 190 195 205 208 212 209 208 211 212 212 214 215 213 208 204
180 182 182 190 223 214 196 186 210 262 237 274 278 283 283 282 287 287 282 218 218 242 215 199 215 204 217 248 203 204 207 213 217 221 219 218 221 227 226 226 231 234 230
191 191 193 194 207 226 206 253 254 258 255 271 280 282 284 281 288 290 252 214 260 294 305 303 277 250 247 243 241 269 235 241 249 237 241 239 239 237 242 244 242 254 257
201 203 206 203 203 219 212 233 261 265 277 267 282 278 277 292 287 287 294 287 283 293 296 299 308 322 293 285 290 299 299 270 283 285 273 257 254 264 269 280 271 268 276
215 214 218 213 210 227 244 235 247 250 262 271 278 283 272 272 275 276 282 293 289 290 292 298 304 311 314 318 311 308 306 302 296 298 290 272 277 285 288 300 302 298 289
249 227 225 224 219 224 237 241 247 251 232 256 266 265 265 271 274 277 278 279 287 287 293 297 303 305 306 313 333 317 251 288 314 288 262 272 278 291 304 308 305 303 299
256 246 239 236 240 234 230 241 234 229 234 224 238 237 265 254 271 279 282 278 279 289 296 297 301 295 248 236 273 309 315 277 278 313 311 305 302 311 315 311 308 304 304
269 258 248 241 237 234 239 233 238 238 246 244 248 256 267 258 270 269 276 278 276 282 292 284 278 253 239 259 289 317 318 327 336 336 334 326 312 316 317 317 316 308 303
269 269 260 252 238 234 231 234 234 233 242 242 243 252 266 272 273 258 214 249 282 272 273 274 299 315 331 301 281 295 310 335 341 340 329 325 330 330 326 321 313 307 301
270 268 267 262 258 230 235 239 246 247 240 250 253 251 259 271 272 265 219 209 208 211 225 305 302 299 296 323 307 282 315 329 298 311 328 343 344 343 340 334 321 315 309
276 271 269 268 268 264 252 239 241 250 254 251 255 258 248 264 229 223 206 205 210 202 208 232 218 219 225 294 266 285 303 327 336 333 335 342 350 354 357 359 344 333 322
282 276 271 268 269 268 268 248 257 265 259 259 260 255 263 267 258 239 227 209 204 204 210 219 290 232 224 298 273 271 292 333 338 343 342 346 354 356 1 2 4 353 329
277 278 277 275 277 266 271 293 269 267 258 260 258 259 260 264 266 268 245 234 225 270 251 268 295 308 285 310 273 306 281 284 343 346 344 347 347 355 358 5 354 350 337
274 274 278 278 272 281 292 300 305 260 259 257 261 257 260 261 263 266 269 265 274 280 282 286 293 299 306 304 301 298 292 299 322 336 335 335 339 350 1 3 41 28 135
278 276 277 278 276 266 269 278 227 211 257 258 257 257 260 262 264 265 268 271 274 275 279 283 288 294 298 297 299 311 297 313 326 327 333 318 326 336 360 358 0 169 176
280 280 278 276 271 271 271 255 251 251 238 263 264 255 254 262 263 263 267 262 265 267 271 278 282 286 287 296 297 297 307 313 322 328 325 315 316 326 339 354 354 355 169
282 279 276 274 269 268 261 244 234 245 259 277 265 258 263 255 259 265 264 260 246 244 256 271 277 278 286 289 297 298 302 309 316 321 328 321 304 310 321 332 323 202 221
286 282 280 279 276 270 260 239 216 238 265 268 275 273 288 254 255 263 261 268 264 265 258 271 275 282 287 291 295 297 301 303 312 316 320 312 297 300 301 311 325 319 209
282 281 283 281 279 280 280 274 259 260 263 266 268 271 272 258 266 257 245 266 270 274 276 273 280 286 288 288 290 297 296 295 301 306 313 309 299 291 297 305 310 314 292
282 284 280 286 287 288 288 283 278 275 273 272 270 271 270 268 267 264 259 259 267 273 277 283 286 284 285 289 289 290 292 294 297 300 303 299 295 295 300 307 313 316 313